TimeCST,TemperatureF,Dew PointF,Humidity,Sea Level PressureIn,VisibilityMPH,Wind Direction,Wind SpeedMPH,Gust SpeedMPH,PrecipitationIn,Events,Conditions,WindDirDegrees,DateUTC
12:15 AM,71.2,67.1,87,29.84,5.0,SSE,16.1,24.2,0.03,Rain,Light Rain,160,2013-01-09 06:15:00
12:35 AM,71.6,67.3,86,29.82,5.0,SSE,12.7,-,0.03,,Haze,150,2013-01-09 06:35:00
12:55 AM,71.2,67.1,87,29.83,5.0,SSE,5.8,-,0.03,,Overcast,160,2013-01-09 06:55:00
1:15 AM,71.1,67.3,88,29.84,5.0,South,3.5,-,N/A,,Overcast,170,2013-01-09 07:15:00
1:35 AM,70.7,67.1,88,29.84,4.0,WSW,5.8,-,N/A,,Overcast,240,2013-01-09 07:35:00
1:55 AM,69.1,65.3,88,29.85,7.0,West,8.1,-,N/A,,Light Drizzle,260,2013-01-09 07:55:00
2:15 AM,68.2,64.4,88,29.85,7.0,West,8.1,-,N/A,,Overcast,270,2013-01-09 08:15:00
2:35 AM,68.0,63.5,85,29.85,7.0,West,6.9,-,N/A,,Overcast,270,2013-01-09 08:35:00
2:55 AM,66.4,62.1,86,29.88,7.0,West,17.3,25.3,N/A,,Overcast,260,2013-01-09 08:55:00
3:15 AM,62.6,58.5,86,29.85,5.0,WNW,6.9,10.4,N/A,,Overcast,300,2013-01-09 09:15:00
3:35 AM,62.6,58.5,86,29.85,7.0,WNW,9.2,-,N/A,,Scattered Clouds,300,2013-01-09 09:35:00
3:55 AM,62.2,58.3,87,29.85,7.0,NW,9.2,-,N/A,,Clear,320,2013-01-09 09:55:00
4:15 AM,61.7,57.9,87,29.85,7.0,NW,9.2,-,N/A,,Clear,310,2013-01-09 10:15:00
4:35 AM,61.7,58.1,88,29.86,10.0,NW,9.2,-,N/A,,Scattered Clouds,320,2013-01-09 10:35:00
4:55 AM,61.9,58.1,87,29.87,7.0,NW,6.9,-,N/A,,Mostly Cloudy,310,2013-01-09 10:55:00
5:15 AM,62.2,58.3,87,29.87,7.0,NW,5.8,-,N/A,,Overcast,320,2013-01-09 11:15:00
5:35 AM,62.4,58.3,86,29.91,10.0,West,18.4,-,N/A,,Overcast,260,2013-01-09 11:35:00
5:55 AM,61.0,56.7,86,29.90,10.0,WNW,21.9,26.5,N/A,,Overcast,290,2013-01-09 11:55:00
6:15 AM,59.9,55.9,87,29.89,10.0,WNW,15.0,24.2,N/A,Rain,Rain,300,2013-01-09 12:15:00
6:35 AM,59.5,55.8,87,29.88,10.0,NW,12.7,18.4,N/A,,Drizzle,310,2013-01-09 12:35:00
7:15 AM,59.5,56.3,89,29.93,10.0,WNW,8.1,-,0.01,Rain,Light Rain,290,2013-01-09 13:15:00
7:35 AM,59.4,56.3,90,29.93,5.0,NW,11.5,-,0.06,Rain,Rain,310,2013-01-09 13:35:00
7:55 AM,59.5,56.7,90,29.95,10.0,NW,8.1,-,0.08,Rain-Thunderstorm,Rain,320,2013-01-09 13:55:00
8:35 AM,59.9,57.2,91,29.97,10.0,Calm,Calm,-,0.04,Rain-Thunderstorm,Light Thunderstorms and Rain,0,2013-01-09 14:35:00
8:55 AM,59.9,57.2,91,29.94,5.0,NNW,6.9,-,0.06,Rain,Rain,330,2013-01-09 14:55:00
9:15 AM,60.1,57.6,91,29.97,7.0,West,4.6,-,0.02,Rain-Thunderstorm,Light Thunderstorms and Rain,260,2013-01-09 15:15:00
9:35 AM,59.9,57.4,91,29.97,7.0,West,5.8,-,0.03,Rain,Rain,270,2013-01-09 15:35:00
9:55 AM,60.1,57.6,91,29.98,7.0,West,3.5,-,0.06,Rain-Thunderstorm,Rain,270,2013-01-09 15:55:00
10:15 AM,59.4,57.0,92,30.01,7.0,WSW,6.9,-,0.03,Rain,Rain,250,2013-01-09 16:15:00
10:35 AM,59.2,56.8,92,30.00,10.0,West,11.5,-,0.05,Rain,Light Rain,270,2013-01-09 16:35:00
10:55 AM,60.1,57.2,90,30.00,7.0,WSW,9.2,-,0.05,,Mostly Cloudy,250,2013-01-09 16:55:00
11:15 AM,60.6,57.4,89,29.99,7.0,West,12.7,16.1,N/A,,Mostly Cloudy,280,2013-01-09 17:15:00
12:15 PM,62.6,58.3,86,29.96,5.0,WNW,9.2,-,N/A,,Haze,290,2013-01-09 18:15:00
12:35 PM,63.1,57.9,83,29.95,7.0,WNW,10.4,-,N/A,,Overcast,290,2013-01-09 18:35:00
12:55 PM,63.5,58.3,83,29.95,5.0,West,10.4,-,N/A,,Haze,270,2013-01-09 18:55:00
1:15 PM,64.2,59.0,83,29.94,5.0,WNW,8.1,-,N/A,,Haze,290,2013-01-09 19:15:00
1:35 PM,64.2,58.5,82,29.93,5.0,NW,9.2,-,N/A,,Haze,310,2013-01-09 19:35:00
1:55 PM,64.2,58.5,82,29.91,7.0,WNW,9.2,-,N/A,,Overcast,300,2013-01-09 19:55:00
2:15 PM,65.5,58.6,79,29.93,7.0,WNW,8.1,-,N/A,,Mostly Cloudy,300,2013-01-09 20:15:00
2:35 PM,65.8,58.1,76,29.91,5.0,NW,8.1,-,N/A,,Haze,310,2013-01-09 20:35:00
2:55 PM,67.1,58.3,73,29.93,7.0,NW,6.9,-,N/A,,Clear,320,2013-01-09 20:55:00
3:15 PM,66.9,57.9,73,29.94,7.0,Calm,Calm,-,N/A,,Clear,0,2013-01-09 21:15:00
3:35 PM,67.1,58.1,73,29.94,7.0,North,4.6,-,N/A,,Clear,360,2013-01-09 21:35:00
3:55 PM,67.1,57.9,72,29.94,7.0,NNW,3.5,-,N/A,,Clear,340,2013-01-09 21:55:00
4:15 PM,68.4,58.1,70,29.94,7.0,North,6.9,-,N/A,,Clear,350,2013-01-09 22:15:00
4:35 PM,68.0,58.3,71,29.94,10.0,North,5.8,-,N/A,,Clear,350,2013-01-09 22:35:00
4:55 PM,67.8,58.1,71,29.95,7.0,NNE,5.8,-,N/A,,Clear,20,2013-01-09 22:55:00
5:15 PM,66.7,58.5,75,29.97,7.0,ENE,4.6,-,N/A,,Clear,60,2013-01-09 23:15:00
5:35 PM,66.2,59.0,78,29.97,7.0,ENE,3.5,-,N/A,,Clear,60,2013-01-09 23:35:00
5:55 PM,65.8,59.2,79,29.98,7.0,East,5.8,-,N/A,,Clear,90,2013-01-09 23:55:00
6:15 PM,64.8,59.9,84,29.99,7.0,ENE,4.6,-,N/A,,Scattered Clouds,70,2013-01-10 00:15:00
6:35 PM,64.6,59.7,84,30.00,7.0,East,4.6,-,N/A,,Mostly Cloudy,80,2013-01-10 00:35:00
7:15 PM,63.9,59.4,85,30.03,7.0,Calm,Calm,-,N/A,,Mostly Cloudy,0,2013-01-10 01:15:00
7:35 PM,63.1,59.5,88,30.02,7.0,Calm,Calm,-,N/A,Rain-Thunderstorm,Light Thunderstorms and Rain,0,2013-01-10 01:35:00
7:55 PM,62.2,59.0,89,30.03,7.0,Calm,Calm,-,N/A,,Scattered Clouds,0,2013-01-10 01:55:00
8:35 PM,61.7,59.0,91,30.03,5.0,ESE,5.8,-,N/A,,Scattered Clouds,120,2013-01-10 02:35:00
8:55 PM,61.7,59.2,91,30.03,5.0,ESE,4.6,-,N/A,,Mostly Cloudy,110,2013-01-10 02:55:00
9:15 PM,61.7,59.2,91,30.05,5.0,SE,4.6,-,N/A,,Overcast,130,2013-01-10 03:15:00
9:35 PM,61.7,59.0,91,30.05,5.0,Calm,Calm,-,N/A,,Overcast,0,2013-01-10 03:35:00
9:55 PM,61.7,59.2,91,30.05,5.0,Calm,Calm,-,N/A,Thunderstorm,Mostly Cloudy,0,2013-01-10 03:55:00
10:15 PM,61.0,58.3,91,30.06,4.0,Calm,Calm,-,N/A,,Scattered Clouds,0,2013-01-10 04:15:00
10:35 PM,60.8,58.3,91,30.06,4.0,Calm,Calm,-,N/A,,Scattered Clouds,0,2013-01-10 04:35:00
10:55 PM,60.1,57.9,93,30.07,3.0,SSE,4.6,-,N/A,,Mostly Cloudy,150,2013-01-10 04:55:00
11:15 PM,60.4,58.1,92,30.08,4.0,SSE,5.8,-,N/A,,Mostly Cloudy,160,2013-01-10 05:15:00
11:35 PM,59.0,56.5,91,30.09,7.0,SSE,4.6,-,N/A,,Mostly Cloudy,160,2013-01-10 05:35:00
11:55 PM,58.1,53.1,83,30.08,10.0,SSE,4.6,-,N/A,,Scattered Clouds,160,2013-01-10 05:55:00